Wind_Speed
44 43 43 42 41 42 43 42 41 39 38 37 38 38 39 40 40 40 40 40 40 39 38 39 39 39 39 37 36 37 37 36 36 35 33 32 31 30 30 31 30 30 29 27 27 26 26 25 24 22 21 20 19 18 16 16 16 16 14 13 13 13 13 13 11 10 11 11 11 12 11 11 11 11 11 12 12 12 14 15 16 16 17 18 19
44 44 43 43 43 43 43 42 41 39 38 38 38 38 39 40 41 40 40 41 40 39 39 40 40 40 40 39 39 39 38 38 38 36 35 35 34 33 32 33 32 32 31 31 30 29 29 28 26 23 21 21 21 21 19 18 18 19 17 15 16 16 17 18 16 13 12 13 12 13 13 12 14 13 13 13 13 13 15 16 16 16 16 17 18
44 44 43 43 44 44 43 42 41 39 39 39 39 40 40 40 41 41 41 41 40 40 40 40 41 42 41 41 40 41 40 39 39 38 37 36 36 36 35 35 35 35 34 33 32 31 30 30 28 25 22 22 23 23 22 21 21 21 19 17 18 19 19 20 18 15 15 16 14 15 15 15 16 16 15 15 15 15 16 16 16 16 16 17 18
43 43 42 42 43 43 43 42 40 40 40 40 40 41 40 40 40 41 41 41 40 41 40 40 41 42 42 42 42 42 42 41 40 39 38 37 37 38 37 37 37 37 36 35 33 32 31 31 30 27 25 25 25 24 24 23 23 22 21 20 20 20 20 22 21 18 17 17 16 17 17 17 18 17 17 17 18 17 17 17 16 17 17 17 19
41 42 42 41 41 43 43 42 41 41 41 41 41 41 41 40 41 41 41 41 41 41 41 41 42 43 44 44 44 43 43 42 41 40 40 39 38 39 38 38 38 38 37 35 32 31 31 31 31 29 28 28 27 26 25 24 24 24 22 21 21 21 21 23 24 21 19 19 18 18 18 19 20 20 20 20 20 19 18 17 17 18 18 18 19
40 41 41 40 41 42 42 42 42 43 43 42 42 42 41 40 41 41 41 41 40 41 42 43 43 44 45 44 44 45 44 43 43 42 41 40 39 39 39 38 37 36 35 33 31 31 31 31 31 30 30 29 29 28 26 25 25 24 23 22 21 20 20 21 22 22 21 21 20 20 20 21 22 22 21 20 20 19 18 18 18 18 17 17 18
40 40 41 40 41 42 43 43 43 44 44 43 42 41 41 41 41 42 42 41 40 41 42 43 44 44 44 44 44 45 44 43 43 43 42 41 40 39 38 37 35 34 33 32 32 32 32 32 32 32 31 30 29 28 27 26 25 24 24 24 22 21 20 20 21 21 21 21 21 22 23 23 23 23 22 19 17 17 17 17 19 18 17 18 18
40 40 40 41 41 43 44 44 43 44 44 43 42 41 41 41 41 41 41 41 41 42 42 43 43 42 43 44 44 43 43 43 43 42 41 40 40 38 37 35 34 32 32 32 32 32 33 33 33 32 32 31 30 29 27 26 26 26 26 26 25 24 22 21 21 21 21 21 22 23 23 23 23 23 22 19 16 17 17 16 17 18 18 19 20
40 40 40 41 43 43 43 42 42 42 42 42 42 42 42 42 41 40 40 41 42 42 41 41 40 40 42 42 42 41 42 43 43 43 41 40 39 38 37 35 34 33 32 32 32 32 32 33 33 33 32 33 32 30 28 27 28 28 28 27 27 26 24 23 21 21 21 20 21 22 21 22 24 23 22 21 19 20 19 16 16 19 19 19 22
40 40 41 42 43 42 42 41 41 41 41 42 43 43 42 42 41 41 40 41 41 40 39 39 39 41 41 41 40 40 41 42 43 43 43 41 39 38 36 35 34 33 32 31 31 32 32 32 33 32 32 33 32 30 29 28 29 29 28 27 27 27 25 23 22 22 20 18 20 21 19 20 24 24 23 22 21 20 19 17 19 20 18 17 21
40 41 42 42 41 41 41 41 40 41 42 42 43 43 43 42 41 41 40 40 40 39 38 39 40 42 41 40 40 40 41 43 43 43 43 41 39 38 36 35 34 33 32 32 32 32 31 31 32 31 30 30 30 29 28 28 28 29 28 27 27 27 26 24 23 21 18 17 20 21 19 20 25 25 22 21 21 20 19 19 19 19 17 14 15
40 41 41 40 40 41 41 41 40 41 41 42 43 43 42 41 40 40 39 39 38 38 39 40 42 42 40 39 40 41 42 44 43 43 42 41 40 38 36 35 34 33 33 33 33 32 30 31 31 31 30 30 29 28 28 28 28 29 29 29 28 27 25 24 22 19 16 18 20 22 22 22 23 24 23 21 21 20 19 19 19 19 18 15 15
40 40 40 40 40 41 42 41 41 41 42 43 42 41 41 41 40 39 39 38 38 38 39 40 41 41 40 40 41 42 43 43 43 42 41 41 40 39 38 36 34 32 32 33 32 31 30 30 30 30 30 30 29 28 28 28 28 28 27 24 21 20 20 19 18 17 18 20 21 24 25 23 22 24 24 21 20 19 17 19 20 20 20 19 20
39 39 39 40 41 41 41 41 41 41 42 42 41 40 41 40 39 39 38 38 38 38 39 40 40 39 40 41 41 42 43 44 43 41 40 39 39 40 39 37 34 32 31 32 32 31 30 30 29 28 28 28 29 30 29 28 28 26 22 18 15 14 15 17 18 19 21 22 23 25 26 24 23 23 21 19 20 20 19 20 21 22 22 21 21
38 38 38 39 40 40 41 41 42 41 41 40 40 40 40 39 39 38 37 37 39 39 40 40 39 39 41 41 40 42 44 43 40 39 39 38 39 40 39 36 33 31 31 31 32 31 30 30 28 28 27 27 29 30 29 29 27 21 18 17 18 18 19 19 20 20 22 24 25 24 23 21 20 19 18 18 20 20 19 20 20 21 22 20 21
36 37 38 39 41 41 42 42 41 41 41 40 40 40 39 39 39 38 36 37 38 38 38 39 39 40 40 39 41 42 40 37 36 36 37 37 38 38 39 36 33 31 30 31 32 31 29 28 26 26 26 26 28 27 23 22 19 16 14 15 18 22 23 21 20 21 23 25 24 22 20 19 18 18 18 17 17 16 16 17 19 20 20 18 20
35 37 38 41 42 43 44 43 41 41 40 40 40 40 40 39 38 37 36 36 36 37 38 39 40 40 39 39 41 39 33 31 32 33 34 36 36 37 38 35 32 31 30 31 31 28 26 25 24 25 25 25 24 20 16 15 14 14 16 17 17 20 22 22 22 22 23 22 21 20 18 17 16 15 14 13 14 15 15 17 19 19 18 14 13
35 37 40 43 44 44 45 44 42 41 41 41 41 40 38 38 37 37 37 36 36 38 38 38 37 38 38 39 38 34 29 28 29 30 32 34 35 36 37 34 31 30 29 28 26 23 23 23 23 25 25 23 20 17 15 16 16 18 21 20 19 20 21 21 20 20 19 18 18 17 15 14 12 11 12 14 14 15 16 17 16 16 15 12 12
38 40 43 45 45 45 45 44 43 41 41 41 40 39 39 38 37 37 38 38 37 37 36 34 34 34 35 35 33 30 28 27 26 27 29 30 32 34 35 32 29 28 26 24 21 19 19 20 21 23 23 20 18 15 15 17 20 23 23 20 19 20 20 18 17 16 16 17 16 15 15 14 14 14 16 15 13 14 14 11 8 8 9 10 12
43 45 46 45 44 43 43 43 42 42 42 41 40 39 38 37 36 37 37 36 35 33 33 32 31 31 31 30 29 29 28 25 23 24 26 27 29 33 33 31 29 28 27 24 22 20 19 19 18 18 18 16 15 13 12 13 19 23 22 19 18 19 18 16 15 15 15 15 15 16 17 17 18 18 17 14 13 13 10 6 5 8 9 10 12
46 46 45 42 42 42 42 43 43 42 41 40 38 37 37 37 37 37 35 33 31 30 29 29 28 27 27 27 26 26 25 24 22 22 23 24 27 31 32 31 30 29 28 26 25 24 22 20 18 16 16 14 13 12 11 14 20 24 22 18 17 19 17 15 14 14 14 14 15 17 19 19 19 18 15 13 12 9 7 7 10 13 12 12 12
44 44 41 40 40 42 42 42 42 40 38 37 36 35 36 36 37 36 33 30 29 27 26 26 25 23 22 22 23 22 21 21 20 21 22 23 26 29 32 31 30 29 28 27 26 25 23 21 19 18 16 14 12 13 15 18 21 21 19 17 17 17 16 14 13 12 13 15 16 17 18 18 16 13 11 9 8 8 9 12 13 14 14 14 13
41 38 36 36 37 40 41 41 40 37 37 38 37 35 35 34 34 33 32 30 28 26 25 25 24 23 21 21 21 21 20 20 19 18 19 21 22 25 28 28 28 28 28 27 25 24 22 21 19 17 14 11 11 14 16 18 18 16 15 15 14 14 13 12 11 12 13 14 15 16 16 14 11 8 7 7 9 11 12 13 14 16 16 14 14
36 32 31 32 33 35 36 38 39 38 38 39 36 34 34 33 32 32 32 31 29 27 26 26 25 24 23 22 22 21 21 20 17 15 16 17 18 20 23 26 27 27 26 25 23 21 20 18 15 12 10 10 12 15 16 15 14 14 12 11 11 11 11 11 11 11 12 13 13 13 12 10 8 8 8 9 11 12 12 13 16 17 15 14 14
21 26 29 30 31 33 34 36 37 38 39 39 37 35 34 33 32 32 32 32 31 28 26 26 26 25 24 23 23 22 21 19 18 17 17 17 17 18 21 25 25 23 21 20 18 17 15 12 9 9 9 11 13 16 16 14 13 10 9 10 11 11 11 10 10 10 10 9 9 9 9 8 8 9 11 12 11 12 13 16 17 16 13 14 16
16 22 25 29 31 32 32 32 33 35 37 38 38 37 36 35 34 33 32 31 30 28 27 26 26 25 25 24 23 21 20 20 20 19 18 18 19 20 22 24 22 19 18 16 14 12 11 8 8 9 9 10 12 14 14 12 10 9 10 11 11 11 10 9 9 9 9 8 8 9 9 9 10 13 14 13 12 12 14 15 16 14 13 15 17
18 19 21 26 30 32 33 33 33 34 35 36 35 34 36 37 35 32 31 30 29 28 27 27 26 26 24 23 22 22 21 21 21 21 20 20 21 22 24 23 21 19 17 15 13 12 10 9 9 10 10 10 11 11 10 10 10 11 11 11 12 12 11 11 11 11 11 10 11 11 12 12 14 15 13 12 12 13 13 13 14 15 15 16 18
22 21 21 22 25 29 33 35 36 35 34 34 34 32 32 33 31 29 30 32 32 31 29 28 27 26 25 24 23 23 22 24 24 24 23 23 22 23 24 24 22 20 18 16 14 13 12 11 11 11 11 12 12 11 11 11 11 12 12 12 13 13 13 13 14 14 14 14 14 15 15 16 15 13 10 10 11 11 10 11 13 14 16 16 17
22 21 22 22 24 27 31 33 35 37 36 35 34 31 31 32 30 28 29 33 34 33 30 29 28 27 27 27 26 24 24 26 25 22 21 22 22 23 24 25 24 22 20 18 16 14 13 13 14 14 14 14 14 13 13 13 13 13 13 14 15 15 15 16 17 17 17 17 17 17 15 14 11 9 8 9 9 8 8 10 12 14 16 17 17
18 16 15 14 15 20 26 29 32 37 40 39 36 32 31 33 34 32 29 29 31 30 28 27 26 25 25 26 25 24 23 22 20 18 18 20 21 21 22 23 24 22 20 18 16 15 15 15 15 15 15 15 15 15 14 15 14 14 15 16 17 18 18 18 18 18 18 17 15 12 10 8 7 6 6 7 7 6 7 10 12 14 16 16 16
16 17 17 17 13 12 16 20 24 28 31 34 36 35 32 29 29 29 28 27 27 26 24 22 20 20 22 24 23 21 18 16 16 18 18 18 19 20 21 23 23 22 20 18 16 16 16 16 16 15 15 14 14 14 14 14 14 15 16 17 19 19 19 19 19 18 15 11 8 7 6 6 6 6 5 5 6 7 9 10 11 13 14 15 16
15 14 16 20 21 18 16 17 20 24 26 27 31 33 32 29 25 23 22 23 23 21 19 17 17 18 20 21 21 19 16 13 14 17 18 17 18 19 21 23 23 22 20 18 17 17 17 16 16 15 13 12 11 11 12 14 15 17 18 19 19 19 18 18 16 12 9 8 8 7 7 8 8 6 5 5 6 8 9 10 11 12 14 15 16
21 17 16 20 25 26 26 25 25 28 28 26 26 28 29 27 25 23 22 20 20 19 18 19 20 21 20 18 16 15 15 14 14 15 17 18 19 20 20 21 21 20 19 18 17 17 17 16 14 12 9 7 7 9 10 11 12 12 13 13 13 12 10 9 9 10 10 9 8 8 9 9 8 6 5 4 6 8 8 9 11 13 15 16 18
26 20 16 17 21 23 27 29 29 28 27 26 26 26 27 28 28 27 25 22 19 18 19 21 22 21 19 17 14 14 15 17 16 16 18 20 21 22 21 20 19 19 19 18 17 17 17 16 12 9 7 6 6 6 6 6 7 7 7 7 8 8 10 11 12 11 9 8 8 9 10 10 8 6 4 4 5 6 7 10 12 14 16 17 19
32 27 20 18 18 20 22 26 28 27 25 24 24 24 26 27 28 27 25 23 21 19 19 19 20 19 17 16 14 15 17 18 18 19 20 22 23 23 23 23 22 21 20 18 17 17 17 14 11 10 11 13 13 13 13 13 12 11 11 11 12 13 14 13 11 8 6 5 6 7 6 6 4 3 3 3 4 6 8 11 13 14 17 18 20
31 33 30 25 23 23 24 26 28 28 27 25 24 24 24 23 22 23 24 24 24 22 21 20 19 18 17 16 17 18 19 18 18 19 21 23 24 24 25 25 25 24 22 20 18 17 15 13 13 14 15 16 14 13 11 11 10 9 9 10 12 13 13 11 8 6 4 4 4 3 2 1 1 2 3 3 5 7 9 11 13 15 16 18 19
24 28 30 28 27 27 26 26 27 28 28 28 27 27 25 22 21 22 23 23 24 24 22 22 21 20 19 19 20 21 20 19 18 19 20 22 23 23 24 24 24 24 23 22 20 18 15 15 15 16 15 14 12 11 11 10 10 9 8 8 8 8 8 7 6 5 5 5 4 3 2 1 1 2 3 4 6 9 9 11 13 15 15 17 18
21 23 25 26 26 27 26 25 26 27 27 27 27 27 26 24 23 23 22 21 22 23 23 23 22 22 22 22 22 22 22 21 22 22 22 24 24 23 22 22 22 23 24 23 22 19 17 15 16 16 15 14 12 12 11 10 9 8 6 5 6 6 6 5 5 5 5 4 3 3 3 3 2 2 3 5 7 9 10 12 13 14 15 17 18
20 21 23 24 25 25 24 24 24 24 24 25 25 25 24 23 22 21 20 20 21 22 22 22 21 23 25 25 25 24 24 24 25 25 25 25 24 23 21 21 22 22 22 22 22 20 17 16 17 16 15 14 13 12 11 9 8 7 5 5 6 7 7 6 5 5 6 5 3 3 4 5 4 2 3 5 7 9 10 11 13 14 16 18 18
20 21 22 23 24 24 24 23 22 22 22 23 24 24 24 22 21 21 21 21 20 20 21 21 21 22 25 26 26 27 27 26 27 27 27 26 24 21 19 20 21 21 21 21 21 19 18 18 19 18 17 15 13 12 10 9 8 7 5 5 6 7 7 6 5 5 6 5 5 5 6 6 4 3 4 5 7 8 9 11 13 14 16 17 18
21 21 21 21 23 24 24 23 22 23 23 23 23 23 22 20 20 21 21 21 20 21 21 21 21 23 25 26 27 27 26 26 26 25 25 26 25 23 20 20 20 18 17 18 18 19 19 21 21 20 17 14 13 12 11 10 8 7 6 6 7 8 7 6 6 5 5 6 6 6 7 6 4 3 4 6 7 8 9 11 12 13 15 17 17
23 22 22 21 22 22 21 21 21 21 21 22 22 21 21 21 22 23 22 21 20 21 20 19 20 23 25 27 26 25 23 22 23 23 23 24 25 24 22 21 20 17 15 15 17 20 22 22 22 19 16 14 14 12 11 9 8 7 6 7 9 9 9 8 7 6 6 6 7 7 7 6 4 4 5 7 9 9 9 10 11 13 15 16 16
22 22 22 21 21 21 20 20 20 20 20 20 21 21 22 23 24 24 23 22 20 20 20 20 21 23 24 25 24 20 17 17 19 20 20 21 23 24 24 23 21 18 15 13 16 20 23 23 21 18 15 14 13 11 9 9 8 8 8 9 10 11 10 9 8 7 7 8 8 7 6 5 4 5 7 9 10 10 9 10 11 13 15 16 16
19 19 19 18 17 17 16 17 18 18 19 19 20 21 23 24 24 23 22 22 21 21 22 21 20 20 22 23 22 18 15 14 15 16 16 18 20 21 21 21 21 19 17 14 15 19 23 23 21 17 14 13 12 10 8 9 9 9 9 10 11 11 10 9 8 8 8 9 8 7 5 5 6 8 10 10 11 10 9 9 11 14 15 15 16
15 16 16 15 14 13 13 14 16 18 18 19 21 22 22 23 23 22 21 22 22 21 20 19 18 17 19 22 22 18 15 14 14 13 14 14 15 15 16 17 18 20 18 16 15 19 22 22 20 17 15 14 13 11 10 9 9 8 9 9 10 10 9 8 8 8 9 9 8 6 6 7 9 11 12 12 11 9 8 9 11 13 13 14 16
14 15 15 15 16 17 18 18 18 20 20 21 21 22 22 22 23 22 22 22 22 21 19 18 18 19 21 22 22 20 18 17 16 14 13 12 12 12 12 14 16 18 18 17 18 20 22 21 19 18 18 17 15 12 10 10 9 9 9 9 9 8 7 7 8 8 9 8 7 7 7 9 11 12 12 11 8 7 7 9 10 11 12 13 16
14 15 16 17 18 19 19 18 18 19 20 21 21 22 22 23 23 23 22 22 21 21 20 19 19 20 21 22 22 22 20 19 18 16 14 12 11 11 12 14 16 17 18 19 20 20 20 20 20 19 18 17 15 12 11 11 10 10 9 9 8 7 6 7 8 8 8 7 7 7 8 10 11 11 10 8 7 6 6 8 8 9 11 13 16
12 14 16 17 15 14 14 15 16 18 20 21 21 21 21 22 22 22 22 21 21 20 19 18 17 17 18 18 19 19 19 19 18 17 15 13 11 11 13 16 18 18 19 20 21 21 20 20 20 18 17 16 14 13 12 12 11 10 9 8 7 6 5 6 7 8 7 7 7 8 9 10 10 9 8 7 7 6 6 7 7 9 12 13 15
10 11 13 14 13 11 10 12 15 16 17 19 21 21 21 21 21 20 20 19 18 17 16 16 16 16 16 16 15 15 15 16 16 16 16 15 14 14 14 17 19 20 21 22 21 20 20 20 19 18 17 16 14 13 12 11 11 10 9 7 5 4 4 5 7 7 7 7 8 9 10 9 9 8 7 8 7 5 5 5 6 10 12 13 13
8 9 10 12 13 10 10 11 13 15 15 17 19 20 19 19 19 19 18 17 16 15 14 13 14 14 14 13 13 13 14 14 14 14 14 14 15 15 16 18 21 22 23 23 22 20 20 20 19 18 17 16 14 12 11 10 9 9 7 4 4 4 4 4 6 7 8 8 9 11 10 9 8 7 7 7 6 4 4 4 7 10 11 10 10
9 9 9 10 11 10 11 11 13 15 15 16 17 17 16 16 17 18 18 17 15 13 12 11 10 10 9 10 11 12 13 13 14 14 14 14 14 16 19 22 23 24 23 23 23 22 21 20 19 18 17 16 14 13 12 10 9 7 5 3 5 6 6 6 6 7 8 9 10 11 10 9 8 7 7 7 6 4 4 5 7 8 8 8 9
Wind_Direction
194 195 197 198 200 203 206 209 210 210 210 210 211 210 210 209 208 207 206 206 206 207 208 208 207 207 207 209 211 211 213 213 212 212 214 215 214 212 210 211 215 217 218 219 219 219 219 221 224 226 227 225 218 213 212 209 210 211 211 214 214 212 213 208 209 231 245 245 247 250 254 260 262 262 265 268 269 271 273 274 277 279 282 285 287
194 195 196 197 199 202 205 207 208 209 209 211 212 212 211 210 209 207 207 207 208 208 209 208 208 208 208 210 211 212 212 212 211 212 214 215 215 214 212 212 215 217 218 220 220 221 222 223 224 225 224 222 217 213 212 209 208 209 211 215 219 217 218 217 214 223 245 252 250 254 259 262 263 263 266 270 275 281 280 279 280 281 285 289 291
194 195 195 197 199 201 203 205 206 207 208 210 212 213 212 211 209 208 208 208 209 210 210 209 208 208 209 210 211 211 212 212 213 214 215 216 216 216 215 215 216 217 218 220 221 220 222 224 225 223 220 217 215 215 217 216 213 211 213 218 222 222 223 225 221 222 238 251 256 260 263 264 265 267 269 272 277 282 282 283 283 282 286 290 291
194 194 195 197 198 200 202 203 203 205 207 210 211 212 213 211 209 209 209 209 210 210 210 210 209 209 210 211 211 211 211 212 214 216 217 218 218 218 218 218 218 219 220 221 221 220 221 224 226 225 222 220 220 220 221 221 218 215 217 223 225 227 229 228 227 228 236 244 254 261 266 268 270 271 272 272 275 277 279 282 283 281 284 288 289
193 194 195 196 197 199 201 201 201 204 206 209 211 212 212 211 210 210 209 210 210 210 210 210 210 210 211 211 211 212 213 213 214 216 218 220 221 221 220 220 221 222 223 223 222 221 223 226 229 229 227 227 226 225 223 222 221 220 224 231 230 231 234 230 229 233 236 239 250 260 264 267 268 269 268 267 269 272 273 276 278 279 282 285 286
193 194 195 195 197 199 201 201 201 203 206 208 210 211 211 211 211 211 210 210 210 210 210 210 212 212 213 213 212 213 214 215 215 217 218 220 222 222 222 222 223 224 225 226 226 225 225 228 230 230 231 232 232 228 225 223 223 223 228 234 234 229 229 226 226 230 234 240 252 260 262 264 266 269 271 268 266 269 273 276 276 276 279 282 285
193 193 194 195 197 200 201 202 202 203 205 208 209 210 211 212 212 211 211 210 210 210 210 211 213 214 214 214 214 215 215 216 217 218 218 220 221 222 222 222 223 225 226 227 228 228 228 229 231 232 233 236 235 230 226 225 227 229 231 234 233 226 223 222 223 228 234 243 253 257 262 266 268 272 278 277 269 267 271 274 276 278 282 287 290
193 193 194 196 198 200 202 203 203 203 205 207 208 210 211 212 213 212 211 211 211 211 212 212 213 214 215 216 216 216 216 216 217 218 218 219 220 221 222 222 222 224 226 228 229 230 230 231 233 235 236 237 236 232 230 230 232 235 235 235 232 228 227 229 230 233 238 243 250 255 261 268 271 276 282 280 272 270 274 274 275 281 289 293 295
193 193 195 197 199 201 202 203 203 204 204 206 208 210 211 213 213 213 212 211 212 213 213 213 213 215 216 217 217 217 217 218 218 217 217 217 219 221 222 222 222 223 225 227 229 231 233 234 235 238 240 240 238 238 239 239 237 237 239 237 233 231 233 236 236 237 238 240 247 254 260 267 273 276 278 277 275 277 281 278 274 281 287 290 294
194 194 196 200 200 200 201 203 203 204 203 205 207 209 211 212 213 213 213 212 213 213 214 214 215 217 218 217 217 217 218 219 219 219 218 217 219 220 221 222 223 224 225 227 230 232 233 234 237 240 243 242 241 242 244 242 239 241 243 239 234 233 233 235 237 238 236 237 246 255 260 267 273 275 275 278 281 280 279 276 274 278 281 283 290
194 196 199 201 199 199 201 202 203 203 204 205 207 208 210 211 212 213 213 213 213 213 213 214 216 218 218 218 218 218 219 221 221 220 220 219 220 221 222 223 224 224 224 226 229 231 232 234 236 238 240 240 240 242 245 243 241 243 244 242 241 238 234 235 237 237 237 244 254 261 263 266 274 279 277 280 283 280 277 274 271 271 273 273 281
196 198 200 200 198 199 201 202 202 203 204 205 207 208 209 211 212 212 212 212 212 212 212 215 217 219 219 219 219 220 222 223 222 221 221 220 221 222 224 225 225 224 223 226 229 231 231 233 235 236 237 239 242 245 246 245 244 243 243 244 243 239 235 237 240 240 249 261 264 268 269 270 276 282 282 283 285 283 279 274 267 265 267 267 268
197 199 200 198 198 199 200 201 202 203 204 205 207 207 208 210 211 211 211 212 211 211 213 215 217 218 218 219 221 222 224 225 224 222 221 221 221 222 225 226 226 224 223 225 228 230 231 233 234 236 237 239 243 246 245 245 245 243 240 237 235 232 233 238 244 250 260 266 267 273 278 280 281 286 289 289 287 285 281 274 270 268 268 269 273
198 200 199 199 200 200 200 201 203 204 205 205 205 206 208 210 210 210 210 210 211 212 213 215 216 217 218 220 221 223 226 226 224 222 221 221 221 223 225 226 226 226 225 226 228 230 232 234 234 235 236 238 241 244 244 245 243 236 225 218 218 222 225 235 248 257 262 266 271 277 284 289 289 291 294 293 290 287 283 278 277 276 275 277 281
198 199 199 200 201 200 200 201 202 203 204 204 204 206 208 209 210 210 209 209 211 213 214 215 216 217 219 219 221 224 227 226 224 221 220 221 222 223 223 224 226 227 226 227 230 232 235 235 234 236 238 238 241 245 246 243 234 221 214 220 228 230 231 240 254 262 268 274 279 284 292 295 293 292 294 293 290 289 287 285 283 280 280 281 283
198 198 199 200 201 200 200 201 202 202 202 202 203 205 206 207 208 208 208 210 212 213 215 216 217 218 219 218 221 225 227 225 222 220 220 221 222 221 221 222 224 226 226 227 231 234 237 236 235 237 239 240 244 245 239 227 210 193 201 221 229 231 234 241 250 262 274 279 283 289 294 293 290 290 290 286 285 289 291 286 280 278 278 280 283
199 198 200 201 202 201 201 200 200 200 200 200 202 203 204 205 206 206 206 208 210 212 214 216 218 218 218 218 221 223 224 223 221 219 219 220 219 219 219 220 222 225 226 228 231 234 237 238 236 236 237 238 238 229 210 198 186 180 196 212 222 230 235 237 246 262 277 282 285 288 288 288 287 285 283 283 290 297 292 284 281 282 282 280 282
202 201 202 203 202 202 201 200 200 198 198 200 201 202 202 203 204 204 205 207 209 212 214 215 217 218 217 219 220 220 220 221 219 218 218 218 217 217 219 219 220 224 226 228 230 232 235 234 232 232 232 230 224 215 212 218 218 208 207 210 219 232 239 243 253 269 281 283 282 280 278 282 283 282 288 295 298 298 293 290 293 294 291 288 290
205 204 206 205 204 202 201 200 199 198 198 200 200 200 200 201 202 203 205 208 210 212 212 213 214 215 216 218 218 217 218 218 217 217 217 216 216 218 219 217 217 221 223 221 220 220 222 223 224 228 230 227 222 226 236 235 224 217 214 213 220 235 247 257 268 280 283 278 273 270 273 280 285 293 300 301 298 300 303 306 312 313 311 308 304
207 208 208 206 204 202 201 200 200 199 199 199 199 199 199 199 199 201 204 207 209 209 209 208 209 210 211 213 214 214 215 215 213 215 216 215 216 218 217 215 216 219 220 217 213 212 216 221 222 225 229 229 229 236 241 227 214 214 216 219 230 245 256 265 273 278 276 271 270 274 281 288 293 299 301 299 299 303 305 309 326 332 329 316 304
208 209 209 206 203 202 201 200 200 200 199 197 196 197 197 196 197 198 199 201 202 202 201 201 201 202 204 206 208 210 213 214 212 212 215 217 219 219 217 218 220 221 220 219 218 217 219 220 221 224 229 231 232 234 232 217 209 212 219 227 241 254 260 263 266 267 267 271 278 285 290 295 297 298 299 301 303 301 290 297 315 323 322 313 302
210 210 209 205 201 200 200 200 200 198 196 194 193 193 194 195 195 194 193 192 190 189 189 189 189 188 190 195 200 203 207 210 208 207 211 216 218 219 220 224 226 225 222 221 220 220 221 222 224 228 228 225 228 236 230 216 210 216 230 242 251 257 258 256 259 262 268 279 287 291 295 297 296 295 297 301 302 295 292 299 310 319 321 316 309
212 211 209 205 203 200 198 196 195 193 191 191 190 188 188 188 188 186 184 181 178 175 175 176 174 171 173 181 189 194 196 197 199 200 206 213 217 218 222 227 230 228 225 224 223 220 222 225 226 225 221 219 231 236 224 213 215 229 244 248 249 249 248 251 259 268 277 285 289 293 295 294 288 283 281 285 290 292 293 298 307 316 317 312 308
209 206 206 204 202 200 196 192 190 188 187 186 183 180 179 178 176 177 176 173 169 166 166 167 165 163 166 172 180 186 187 188 191 195 202 210 213 215 221 226 228 228 227 226 225 222 220 220 220 219 223 231 235 228 218 219 235 249 250 243 237 236 242 254 265 272 277 282 287 290 289 282 270 267 276 288 290 289 291 297 306 312 311 306 307
207 199 199 198 197 194 189 186 184 181 180 177 174 171 170 167 165 166 168 167 165 162 161 163 162 161 164 169 174 181 185 188 192 195 201 207 206 208 217 222 222 223 223 222 221 219 216 215 211 212 224 230 227 224 229 241 251 249 235 228 230 237 249 257 258 259 264 269 272 273 272 268 269 276 287 290 285 286 295 302 305 307 307 308 311
204 198 192 189 186 182 177 174 173 171 170 170 169 167 166 163 162 162 163 161 160 158 157 158 158 158 161 166 172 178 185 192 197 198 200 205 206 206 209 211 212 213 213 211 208 204 202 199 190 191 204 219 226 232 239 243 237 224 219 225 234 242 246 240 234 234 238 243 248 254 259 265 276 287 290 283 278 288 301 305 305 307 310 313 315
186 188 185 180 176 171 167 162 159 159 159 160 161 162 164 164 160 156 154 152 151 153 154 155 157 157 158 162 168 174 180 188 193 195 197 202 208 207 202 198 198 199 198 195 192 187 183 179 181 192 206 217 225 229 226 219 213 213 217 224 233 236 229 222 223 229 235 243 250 255 262 272 284 291 288 277 279 294 304 306 306 308 314 317 315
167 167 170 172 169 165 162 157 153 151 152 153 154 155 158 156 151 152 158 159 155 154 155 157 159 159 159 162 165 168 175 183 187 190 195 199 202 201 194 189 190 191 189 186 181 178 177 177 180 192 203 206 206 204 202 204 209 215 222 229 232 230 223 221 229 236 241 249 256 262 272 282 287 287 278 274 287 302 308 310 310 313 319 321 316
156 157 161 166 167 163 158 154 151 147 143 143 145 146 148 150 152 158 164 165 161 159 158 161 165 167 171 175 174 172 178 187 191 193 198 201 201 197 191 189 190 190 188 186 180 173 173 177 181 188 194 196 195 194 198 207 214 222 231 233 231 230 229 231 236 242 247 255 264 271 277 279 273 266 265 278 294 305 312 317 319 321 324 324 321
127 125 129 140 155 158 153 149 146 142 140 139 135 131 136 148 157 159 157 157 162 165 167 170 174 178 182 185 185 185 187 192 195 198 203 206 204 202 198 194 191 187 184 184 182 176 173 176 182 188 191 191 194 199 207 217 228 238 243 241 237 237 238 238 242 250 259 265 269 268 261 251 244 247 262 281 295 306 316 322 325 327 330 331 330
102 108 112 112 114 125 133 134 135 133 132 130 126 122 121 129 142 150 152 155 161 167 172 177 181 187 188 186 186 190 192 193 197 200 202 204 203 202 200 196 191 187 185 185 182 177 176 179 184 190 194 198 206 216 224 234 245 252 251 247 244 242 242 244 250 256 260 256 240 220 217 223 230 241 257 278 299 315 322 326 332 336 340 340 335
92 102 118 122 121 119 113 113 118 117 113 115 121 124 122 117 117 126 141 152 158 162 167 172 175 182 187 185 184 189 191 191 195 198 198 198 199 198 197 194 191 189 190 190 184 179 182 187 190 193 199 208 222 237 247 254 259 260 257 254 251 249 251 254 253 245 225 202 191 199 215 225 230 240 260 284 308 323 330 338 346 349 346 343 338
122 124 135 136 136 135 131 126 125 124 125 128 131 130 127 121 114 113 122 136 149 156 162 168 173 179 185 186 187 192 191 184 181 183 186 187 188 187 187 187 187 186 186 186 183 183 189 194 193 192 201 221 242 254 258 259 259 257 255 251 248 247 244 233 212 193 183 186 200 216 224 229 236 248 264 289 315 333 342 349 353 350 344 339 336
128 129 138 140 138 139 137 134 133 134 137 138 135 130 128 128 127 124 123 126 134 143 154 165 173 177 180 181 186 192 186 174 166 167 173 176 177 177 175 174 177 182 186 188 188 188 189 189 187 185 187 191 193 185 171 161 162 165 169 176 184 186 178 175 176 178 184 200 222 232 236 242 249 257 271 298 327 343 352 353 348 343 339 335 333
128 125 127 130 130 129 129 129 129 130 130 129 128 128 130 132 135 135 135 133 131 130 136 148 158 166 170 173 178 182 177 168 162 163 167 170 171 171 169 168 172 179 186 190 191 190 187 181 175 168 160 155 152 148 142 140 141 142 144 151 160 165 167 170 174 181 193 212 225 232 240 248 258 279 300 321 348 356 353 348 341 337 336 336 333
129 129 132 134 132 130 128 128 128 130 130 130 130 130 130 132 135 136 137 138 136 133 133 136 143 152 160 167 171 171 168 164 162 163 167 170 170 169 169 171 176 181 186 189 190 187 181 172 164 158 155 153 151 151 151 149 145 139 136 140 150 160 168 176 184 191 194 195 196 199 209 228 323 335 330 336 353 354 348 343 339 338 339 338 333
125 127 131 135 134 132 131 131 132 135 136 137 137 137 136 138 140 140 141 142 141 139 138 138 141 147 154 160 165 164 161 161 163 164 167 169 172 175 178 179 182 184 186 189 188 181 171 166 164 163 161 159 158 158 158 154 147 141 133 133 146 161 172 178 184 187 186 188 199 219 235 225 259 315 321 333 345 348 345 341 340 340 339 338 335
119 121 126 129 131 130 130 131 134 137 138 139 140 140 140 144 148 148 147 145 142 142 142 145 150 156 157 159 162 162 160 160 162 164 168 171 176 183 188 188 188 188 187 186 183 177 172 170 169 168 167 166 167 165 160 153 148 143 137 143 162 171 173 175 183 195 199 205 219 232 233 220 216 258 306 328 340 343 342 342 343 342 340 339 336
117 121 125 127 127 127 128 131 135 137 137 138 139 140 142 147 149 147 145 143 143 145 149 155 162 165 163 160 161 162 161 162 164 167 171 176 180 185 190 191 190 190 188 184 181 181 183 179 174 173 173 172 172 171 166 158 153 149 146 158 172 178 181 185 196 206 207 211 221 227 224 216 211 239 298 319 333 338 341 344 344 342 338 337 336
118 122 126 129 129 129 130 133 135 137 138 139 142 146 150 151 149 147 147 148 148 153 159 165 170 172 169 167 168 168 167 168 170 173 175 177 178 180 183 187 188 188 187 184 183 188 191 185 178 178 178 175 172 170 168 164 161 159 160 171 186 195 197 194 195 200 205 218 232 224 205 198 201 244 293 312 326 332 335 339 341 340 339 337 336
123 124 127 129 130 131 133 136 140 145 147 148 150 153 153 151 151 152 154 156 159 164 170 175 179 179 178 177 176 176 176 174 175 177 178 178 176 174 175 181 184 184 184 186 188 191 189 184 182 181 178 173 171 171 169 169 171 173 180 191 197 202 203 198 200 213 226 232 226 201 185 187 209 262 292 310 319 320 323 331 335 335 336 337 335
127 126 127 129 131 132 135 139 145 150 151 151 154 156 156 156 159 161 163 166 170 173 176 182 187 188 185 182 180 180 181 180 180 182 183 182 180 177 176 179 180 179 178 183 189 192 190 187 186 184 178 173 175 177 177 180 186 191 199 202 199 199 200 203 210 223 230 223 205 190 189 203 236 277 302 315 318 313 317 329 333 333 333 335 335
122 124 127 130 133 136 141 146 150 152 153 154 156 160 164 166 168 169 168 171 176 179 180 184 189 190 187 184 182 182 186 187 187 187 187 186 186 186 184 183 181 179 177 180 190 196 196 192 188 187 185 184 187 189 189 192 199 207 210 206 201 201 206 211 217 222 221 212 204 202 212 230 264 296 312 320 318 313 317 328 331 330 332 334 333
111 117 122 126 130 135 143 151 155 156 159 162 165 169 172 173 174 174 172 172 176 181 181 181 184 184 182 181 181 183 187 189 188 188 189 190 191 191 191 189 188 189 188 189 194 199 198 192 187 189 192 191 189 188 191 201 213 218 211 203 203 208 216 224 230 229 225 218 214 217 234 261 288 302 310 315 312 307 311 322 327 329 331 333 332
119 124 129 134 138 140 146 156 162 162 160 161 165 170 174 174 174 175 173 170 172 177 178 178 179 178 177 178 180 183 185 184 182 180 182 184 185 187 189 192 196 199 200 197 194 194 193 190 189 190 189 185 184 187 196 207 214 213 209 211 218 225 232 239 241 236 227 223 225 239 261 283 294 300 304 307 302 295 300 314 323 328 331 331 331
134 136 140 143 143 142 143 147 150 151 153 158 162 165 168 171 171 171 170 168 169 172 174 174 174 173 172 175 179 180 180 180 180 178 179 181 182 185 189 192 194 195 196 192 188 187 189 190 190 188 183 181 181 186 194 202 205 207 213 224 231 236 239 243 242 235 228 229 243 261 276 287 293 297 301 300 287 277 292 310 321 330 332 330 331
139 139 142 145 144 143 143 143 142 144 151 160 165 165 166 168 168 166 166 168 170 171 172 171 168 168 171 176 180 181 181 182 183 181 179 179 184 193 200 199 193 190 190 189 187 188 188 188 185 182 181 181 182 186 192 201 207 212 217 225 230 236 241 241 237 235 237 248 268 281 286 290 291 293 295 285 260 258 291 313 326 334 332 330 333
142 135 133 135 138 142 148 151 151 150 152 156 158 158 160 164 166 166 167 168 169 169 170 169 168 171 175 180 184 186 189 191 191 189 188 190 197 203 207 206 202 197 193 190 189 189 189 188 185 183 183 183 185 189 195 202 208 211 215 222 229 237 241 237 234 239 249 266 285 295 297 293 290 287 282 263 242 253 299 323 334 334 330 331 338
140 141 140 139 144 158 175 173 165 158 153 148 146 144 144 149 158 164 168 170 171 171 171 171 173 178 183 187 191 196 200 203 206 207 208 210 212 211 208 209 207 201 194 190 190 192 193 191 189 187 186 186 188 191 194 199 204 208 212 218 224 230 239 239 240 249 260 271 289 303 303 296 287 280 266 245 235 253 298 319 327 329 329 334 342
151 157 151 138 138 162 196 194 173 164 158 151 146 141 139 140 147 157 165 170 171 171 172 175 177 182 188 191 193 199 204 207 209 210 210 211 213 210 205 203 201 197 194 195 197 197 195 192 189 187 186 187 189 192 195 201 208 210 212 216 221 227 238 245 250 257 263 273 291 303 303 295 286 271 247 229 226 245 284 304 315 325 333 341 346
172 165 156 145 148 175 200 189 165 158 160 157 152 151 149 145 143 148 157 164 166 167 172 177 180 185 196 203 205 208 211 213 215 216 215 215 216 210 201 197 196 196 197 199 199 196 194 191 190 190 192 194 199 204 208 212 217 217 219 228 234 236 241 245 251 259 266 278 292 300 298 293 281 254 225 213 216 231 269 304 321 333 343 351 347
Height
737 740 744 748 751 754 757 760 764 767 770 772 774 776 778 779 780 783 784 786 788 790 792 793 795 797 799 801 802 803 804 806 808 810 811 812 813 814 815 816 817 818 819 821 821 823 824 824 826 827 828 829 830 831 831 832 833 833 834 834 834 835 836 836 836 836 836 837 837 837 837 838 837 837 837 837 837 837 836 836 835 834 833 832 831
731 735 739 743 746 749 752 756 760 764 767 769 771 773 774 776 778 780 781 783 785 786 788 790 792 794 796 797 798 800 801 803 805 806 808 809 810 812 813 813 814 815 816 817 818 820 821 822 823 825 826 826 827 828 828 829 830 831 831 832 832 833 833 833 834 834 834 834 835 836 836 836 836 836 836 836 836 835 835 834 833 832 832 831 830
727 731 735 737 741 744 747 751 755 759 762 764 767 769 771 772 774 776 777 780 782 783 785 787 789 791 792 794 795 796 798 799 801 803 804 806 807 808 809 810 811 812 813 814 815 817 819 820 821 823 824 824 825 825 826 826 827 828 829 829 830 830 831 832 833 833 833 833 834 834 834 835 835 834 835 835 834 834 833 832 831 831 830 829 828
723 727 730 733 737 740 742 746 750 754 757 760 762 764 767 769 771 772 774 776 778 780 782 784 785 787 788 789 791 793 794 796 797 799 800 802 803 804 805 806 807 808 809 810 813 815 817 819 820 822 823 822 823 823 824 825 825 826 827 827 828 828 829 831 831 832 832 832 832 833 833 833 833 833 833 833 833 832 832 831 830 829 829 828 827
720 723 727 730 733 736 738 741 745 748 751 754 757 760 763 765 767 769 770 772 774 776 779 780 782 783 783 785 787 788 790 792 793 795 796 798 799 800 802 803 804 805 807 809 811 814 816 817 818 820 821 820 820 821 822 823 824 825 826 826 827 827 828 828 829 830 831 831 831 831 832 832 831 831 831 831 831 830 830 829 828 827 827 826 825
715 719 723 726 729 731 733 736 739 742 746 749 753 756 759 761 763 765 766 768 771 772 774 776 777 778 779 781 783 784 786 788 790 791 793 794 796 797 799 800 802 803 805 807 810 811 813 814 816 817 818 818 818 819 821 822 822 823 824 825 826 826 826 826 827 829 829 829 829 830 830 829 829 828 828 829 828 828 827 826 826 825 825 824 823
712 715 718 721 724 726 728 730 733 736 740 744 748 751 754 757 758 760 762 765 767 768 770 771 772 774 776 778 779 781 783 785 786 788 789 791 793 795 796 798 800 802 804 805 807 808 810 811 813 814 815 816 817 818 820 821 821 822 823 824 825 826 826 826 827 827 828 827 827 827 827 827 826 826 826 826 826 825 825 824 823 822 822 821 820
707 710 713 715 718 719 722 726 728 731 735 739 744 747 750 753 754 756 759 761 762 764 765 767 769 772 773 775 776 778 780 781 783 784 786 789 790 792 794 796 797 800 801 802 804 805 807 808 809 811 812 814 815 817 819 820 820 821 822 823 824 825 825 826 826 826 826 826 825 825 825 824 824 824 824 824 824 823 822 822 821 820 820 819 818
702 705 708 709 711 714 718 722 725 728 732 735 739 742 745 748 750 753 755 756 758 760 762 765 767 769 770 771 774 776 777 777 778 781 783 785 787 789 791 793 795 797 798 799 801 802 804 805 807 808 810 811 813 815 817 818 818 818 819 821 822 823 824 825 825 825 825 825 824 824 824 823 822 822 822 822 821 821 820 821 819 818 818 817 816
696 699 701 702 705 710 714 718 721 724 727 730 733 737 740 743 746 748 750 752 755 757 760 762 764 765 766 768 770 772 772 773 775 777 779 782 785 787 789 791 792 794 795 797 799 800 801 803 804 806 808 809 811 813 814 815 815 816 818 819 820 821 822 823 823 823 823 823 823 823 822 821 820 820 820 820 820 819 819 819 818 817 817 816 814
691 693 695 697 702 706 710 713 717 720 722 725 728 731 735 738 741 744 746 749 752 754 757 759 759 761 762 764 766 767 768 769 771 773 776 779 782 784 786 788 789 791 793 794 796 797 798 800 801 804 806 807 809 810 811 812 813 814 815 816 817 818 819 820 820 821 822 822 822 822 821 820 819 819 819 818 818 818 817 817 816 816 815 814 813
686 688 690 694 699 702 705 708 712 715 717 720 723 726 730 734 737 740 742 745 748 750 752 754 755 757 759 761 762 763 764 765 767 770 773 777 780 782 784 785 786 788 790 791 793 794 796 797 799 801 803 805 806 807 808 809 810 812 813 813 814 814 815 817 818 819 820 821 821 820 819 818 818 817 817 817 816 815 815 815 815 814 813 813 811
680 683 686 691 694 696 700 703 707 710 712 715 719 722 726 729 732 735 738 741 744 746 748 749 751 753 755 757 758 759 760 762 764 767 770 774 778 780 782 783 784 785 787 789 791 792 794 795 796 798 800 802 803 804 805 807 808 810 811 811 811 813 815 816 817 818 819 819 819 818 817 817 816 816 816 815 814 814 813 813 812 811 811 810 809
676 679 682 686 688 692 696 698 701 705 707 711 715 718 721 724 728 732 735 738 740 742 743 745 747 750 751 752 754 755 756 757 760 763 768 772 775 777 779 780 781 783 784 786 788 789 791 792 794 796 797 799 800 801 802 804 805 806 806 807 810 813 814 815 816 817 817 817 816 815 815 816 815 814 814 814 813 812 811 811 810 809 808 808 807
671 674 678 681 684 687 690 693 696 699 703 708 711 713 717 720 724 728 731 734 735 737 739 741 743 745 747 748 750 751 751 753 757 761 765 769 772 774 776 777 779 780 782 783 785 786 788 789 791 794 795 796 797 797 799 800 800 801 803 806 809 812 813 813 815 815 815 815 814 814 814 814 813 813 813 812 811 811 810 809 808 807 806 806 805
666 670 673 676 679 682 684 688 691 694 699 703 705 709 712 715 719 723 727 730 732 734 736 738 740 741 743 745 746 746 748 751 755 759 763 766 769 771 773 775 776 778 779 781 782 783 785 787 790 792 793 794 794 795 796 797 797 798 802 806 808 809 810 811 811 812 812 812 812 812 811 811 811 811 811 810 810 809 808 808 807 806 805 804 803
662 665 667 670 673 675 678 682 685 689 694 697 700 703 706 711 716 720 724 727 729 731 732 734 736 737 739 741 742 744 747 750 753 757 761 764 767 769 771 772 773 775 776 778 779 781 784 786 788 790 790 791 792 793 795 796 797 797 799 802 804 805 805 806 808 808 809 809 809 809 809 809 809 809 809 809 808 808 807 806 805 805 804 802 801
658 660 661 663 666 669 673 676 680 684 688 690 694 698 703 708 712 716 720 722 724 727 728 730 733 735 736 739 741 744 747 748 751 755 758 762 765 767 768 770 771 773 774 776 778 780 782 783 785 787 787 787 789 790 792 795 796 796 795 797 799 800 801 803 805 806 806 806 806 806 807 807 807 807 808 808 807 806 805 804 804 803 802 801 799
651 653 655 657 660 664 668 671 675 678 682 686 690 695 699 704 709 713 716 718 721 723 726 728 730 732 735 738 740 743 745 747 750 753 756 760 763 765 767 768 770 771 773 775 777 779 780 781 782 783 784 785 787 788 790 791 792 794 795 795 797 798 800 802 803 803 804 804 804 805 805 805 806 806 806 805 805 804 803 802 802 801 800 800 799
644 646 648 651 656 661 664 668 671 674 678 682 687 692 697 701 706 709 712 715 718 721 723 726 728 730 733 736 738 741 743 746 749 752 755 758 761 762 764 766 767 769 771 773 775 777 778 779 780 781 782 784 785 787 788 788 790 792 795 796 797 798 799 801 801 801 802 802 802 802 803 803 803 803 803 803 803 802 802 801 801 800 799 798 797
636 640 644 648 652 657 661 665 667 671 675 680 685 690 694 697 701 704 708 712 715 718 721 724 726 729 731 734 737 740 742 745 748 751 753 756 758 761 762 764 765 768 769 771 773 774 775 777 778 780 781 782 784 785 786 788 789 791 793 795 796 797 798 799 799 799 799 800 800 800 800 800 800 800 801 801 801 801 801 800 800 799 798 797 795
632 636 640 645 648 652 656 660 665 669 674 679 683 687 690 694 697 701 705 709 712 716 719 722 725 728 731 733 736 738 741 744 746 749 751 753 755 757 760 762 764 766 767 769 770 772 774 775 777 779 780 781 783 784 785 787 788 790 791 793 794 795 796 797 797 797 797 797 797 798 798 798 798 798 799 799 799 799 799 799 798 797 796 795 794
629 634 639 643 646 649 651 655 661 666 671 675 679 683 686 691 695 698 702 706 710 714 717 721 724 727 730 732 734 737 739 742 745 747 749 751 753 755 757 760 763 764 766 767 768 770 772 774 776 778 780 781 782 783 784 786 787 789 790 791 792 793 794 795 795 795 795 795 796 796 796 797 797 797 798 798 798 798 798 797 797 796 794 793 792
626 632 638 642 645 648 650 652 656 660 665 670 674 679 683 687 690 694 698 702 707 711 715 718 722 725 728 730 733 735 738 741 743 745 747 749 751 753 756 758 760 762 764 766 768 770 772 774 776 778 779 780 781 782 783 785 786 787 788 789 791 792 792 793 793 793 793 794 794 794 795 795 796 796 797 797 797 797 796 795 795 794 793 792 791
631 631 634 638 642 645 647 649 652 655 659 665 670 674 679 682 686 690 694 698 702 707 711 715 718 722 725 728 731 734 736 739 741 743 745 747 748 749 753 756 758 761 764 765 767 769 771 773 776 777 779 779 780 781 782 783 785 786 786 788 789 790 791 791 791 791 792 792 793 794 794 795 795 796 796 796 796 795 795 794 793 792 791 790 788
634 634 634 635 638 641 644 647 651 653 657 661 666 670 674 678 682 686 689 693 698 703 708 712 716 719 723 726 729 732 735 738 740 743 745 747 747 747 749 753 756 760 762 764 767 769 771 773 775 776 778 778 779 780 781 782 783 784 785 787 788 788 789 790 790 790 791 792 792 793 793 794 794 795 795 795 795 794 793 792 791 790 789 788 786
630 634 636 636 637 639 641 644 648 651 655 659 663 668 671 674 677 681 685 689 695 701 706 710 714 717 721 725 728 730 733 737 739 741 744 747 748 747 747 750 754 758 761 763 765 767 770 772 774 775 776 777 778 779 780 781 782 783 784 786 786 787 788 788 789 790 790 791 791 792 792 793 793 793 794 793 793 793 792 791 790 788 787 786 783
624 629 634 638 639 639 640 641 644 647 652 656 660 665 669 672 676 682 686 688 691 696 703 708 712 716 719 723 727 729 732 734 735 737 740 744 746 747 746 749 752 756 759 762 764 766 769 770 772 774 775 776 777 777 778 780 781 782 783 784 785 786 787 787 788 789 789 790 791 791 791 792 792 792 792 792 792 791 790 789 788 787 785 783 781
623 626 630 637 642 642 641 641 641 642 647 652 657 662 667 672 680 687 689 688 689 694 701 707 711 715 718 721 724 727 730 731 732 735 738 741 744 745 746 747 750 754 757 760 762 765 767 769 771 772 773 774 775 776 777 779 780 781 782 783 784 785 785 786 787 787 788 789 789 790 790 790 790 791 791 790 790 789 788 787 786 785 783 781 779
624 627 630 636 643 645 644 642 640 640 642 646 652 660 667 674 681 687 689 690 693 697 702 707 711 714 717 720 722 725 727 729 732 735 738 741 743 745 746 747 749 752 756 758 761 763 765 767 769 770 771 773 774 775 776 777 778 779 780 781 782 783 784 785 785 786 787 788 788 789 789 789 789 789 789 789 788 787 786 785 784 783 781 779 777
628 629 630 634 642 647 647 646 645 645 646 647 651 658 667 675 681 685 688 691 695 699 703 708 711 714 717 720 722 724 727 729 731 734 737 740 743 745 746 748 749 751 754 756 759 762 764 766 768 769 770 771 772 773 775 776 776 778 778 779 781 781 782 783 784 785 786 786 787 788 788 788 788 788 787 787 786 785 784 783 782 781 779 778 776
635 636 636 636 640 646 651 653 653 653 655 657 659 662 668 674 680 685 689 693 696 701 705 709 712 715 718 720 721 723 725 728 730 733 736 739 742 744 746 747 749 751 753 755 758 760 762 764 766 767 768 770 771 772 773 774 775 776 776 777 778 779 780 781 782 783 785 785 786 787 787 787 787 786 785 785 784 783 782 781 780 779 777 776 775
636 640 643 642 643 648 653 656 658 659 661 666 668 669 669 672 677 684 691 695 699 703 706 710 713 716 718 719 721 722 724 727 729 731 733 736 739 742 745 747 749 751 752 754 757 759 761 763 764 766 767 768 769 770 771 772 773 774 774 775 776 777 778 780 781 783 784 784 785 786 785 785 785 784 783 782 781 781 780 779 778 777 776 774 773
634 641 647 649 649 652 653 653 656 660 665 669 671 670 671 674 678 684 690 695 700 704 707 711 713 715 717 719 721 722 724 726 727 729 731 734 737 740 743 746 749 751 752 753 755 757 759 761 763 764 766 767 768 770 771 772 772 773 774 774 775 776 778 779 781 783 783 784 784 784 784 783 783 782 781 780 779 779 778 777 776 775 774 773 771
631 638 649 654 655 655 655 654 656 661 667 670 672 674 677 680 683 687 690 695 700 704 708 710 713 715 717 719 722 723 725 726 727 728 730 733 736 738 741 745 747 749 751 752 754 756 758 760 762 763 765 767 768 770 771 771 772 773 773 774 775 776 778 780 781 782 783 783 783 783 782 782 781 780 780 779 778 777 776 775 775 774 772 771 770
632 634 644 653 657 657 657 657 659 663 667 671 675 679 683 687 690 692 694 697 701 704 707 709 712 715 718 721 723 725 726 727 728 729 730 732 735 737 739 742 745 747 749 751 754 756 758 760 761 763 765 767 768 769 770 771 772 772 773 773 775 776 778 780 781 781 781 781 781 781 781 780 780 779 779 778 777 776 775 774 773 772 771 770 769
641 638 642 649 653 655 657 659 662 665 668 672 676 680 684 690 695 697 699 700 701 703 706 708 711 714 718 722 724 725 726 728 729 730 731 733 735 737 739 740 742 745 747 750 753 755 757 759 761 763 764 766 767 769 769 770 771 771 772 773 775 776 778 779 780 780 780 780 780 780 779 779 778 778 778 777 776 775 774 773 772 771 770 769 767
647 646 646 649 652 655 658 661 664 668 671 674 678 681 684 689 695 699 701 701 702 704 706 709 712 715 718 721 723 724 725 727 729 731 732 733 735 737 738 740 741 743 746 748 751 754 756 758 760 762 764 765 767 768 768 769 769 770 771 772 774 776 777 778 779 779 779 779 778 778 778 777 777 777 776 776 775 774 773 772 771 770 769 767 766
652 652 653 654 656 658 662 665 669 672 674 677 680 684 687 691 695 699 701 702 703 706 709 712 715 717 718 719 721 723 724 726 727 729 731 732 734 736 737 739 741 743 745 748 750 752 755 757 759 761 763 764 765 766 767 767 768 768 770 772 773 775 776 777 777 777 777 777 777 776 776 776 776 775 775 774 773 772 772 771 770 769 767 766 765
658 659 659 660 661 664 667 671 674 677 679 681 684 687 689 692 695 698 701 703 705 707 710 713 716 717 718 719 720 721 723 724 725 727 729 730 733 735 736 738 740 743 745 747 749 751 753 756 758 760 762 763 764 765 765 766 766 767 769 771 772 774 775 775 776 776 776 775 775 775 775 775 774 774 773 773 772 771 770 769 769 768 766 765 763
663 665 666 667 668 669 672 675 678 681 683 685 687 689 691 693 696 699 702 704 706 709 711 713 716 717 718 719 720 721 721 722 724 726 727 729 731 733 735 738 740 741 743 745 747 750 752 754 757 759 760 761 762 763 763 764 764 766 768 770 771 773 774 774 774 774 774 774 773 773 773 773 773 772 772 771 770 770 769 768 767 766 765 764 762
667 669 670 672 673 675 677 679 682 684 686 688 690 691 693 694 697 700 703 705 708 710 711 713 716 718 719 720 721 721 722 722 723 725 727 728 730 732 735 737 739 740 742 744 746 749 751 753 755 757 758 759 761 761 761 762 763 764 766 768 770 771 772 772 773 772 772 772 772 772 772 772 771 771 770 770 769 768 767 767 766 765 764 763 761
670 671 673 675 676 677 679 681 684 686 688 690 692 694 696 696 698 700 702 704 707 710 711 714 716 717 719 720 721 721 722 723 724 725 726 728 730 732 734 736 737 739 741 743 745 748 750 751 753 755 756 757 759 759 759 760 761 763 765 767 768 770 770 770 771 771 771 771 771 771 771 770 770 769 769 768 767 767 766 765 765 764 763 761 760
674 675 676 677 678 679 681 683 685 686 688 690 692 696 698 698 699 699 700 702 706 709 712 714 715 716 717 718 719 720 722 723 724 725 726 727 729 731 733 735 736 739 741 743 744 746 748 750 752 753 755 756 757 757 758 759 761 762 764 765 767 768 768 769 769 769 769 770 770 770 769 769 768 768 767 766 766 765 765 764 763 762 761 760 758
678 678 679 680 681 682 683 684 686 687 689 691 693 695 698 699 699 699 700 702 706 709 712 713 713 714 715 716 717 719 721 722 723 724 725 727 728 730 732 734 736 738 740 742 743 744 746 748 750 752 753 755 755 756 757 758 760 761 763 764 765 766 767 767 767 767 767 768 768 768 767 767 766 766 765 765 764 764 763 763 762 761 760 759 757
680 681 681 682 683 684 685 686 687 688 690 693 694 695 697 699 699 700 702 704 706 709 710 711 712 713 713 714 716 718 720 721 722 724 725 726 728 729 731 733 735 737 739 740 742 743 745 747 749 750 752 753 753 754 756 757 758 760 762 763 764 765 765 766 766 766 766 766 766 766 765 765 764 764 763 763 763 762 762 762 761 760 759 757 756
683 684 685 685 685 685 685 686 688 689 691 693 694 695 697 698 699 700 702 703 705 707 709 710 711 711 712 713 715 717 719 720 722 723 725 726 727 729 731 733 735 736 738 739 740 742 744 746 747 748 750 751 752 753 754 756 757 759 761 762 763 764 764 765 764 764 764 764 764 763 763 762 762 762 761 761 761 761 761 760 759 758 757 756 755
685 685 686 686 687 688 688 687 688 690 692 693 694 695 696 697 698 700 701 703 704 706 707 708 709 710 711 712 714 716 718 720 721 723 725 726 728 730 731 732 734 735 736 738 739 741 742 744 745 747 748 749 750 752 753 755 756 758 760 761 762 763 763 763 763 763 763 763 762 762 761 760 760 760 759 759 760 759 759 759 758 757 756 755 754
687 687 687 687 689 691 691 690 689 690 692 693 694 695 696 696 698 699 700 702 703 704 706 707 708 709 710 712 714 716 718 720 721 723 725 726 728 729 730 731 732 734 735 736 738 739 741 742 744 745 746 747 749 750 752 753 755 757 758 760 761 762 762 762 762 762 762 761 761 760 759 758 758 758 758 758 758 758 758 757 756 756 755 754 752
689 689 688 688 688 691 692 691 690 691 692 693 694 694 695 696 697 698 699 701 702 704 705 706 707 709 710 712 714 716 718 720 721 723 725 726 727 728 729 729 730 732 733 735 736 738 739 741 742 743 745 746 748 749 751 752 754 756 757 758 759 760 760 760 760 760 760 760 759 759 758 757 756 756 756 756 756 756 756 756 755 754 753 752 751
689 689 689 689 689 691 692 692 691 691 692 693 693 693 694 695 696 697 699 701 702 704 705 706 708 709 711 713 715 717 718 720 722 723 724 726 726 727 727 728 729 730 732 733 735 736 737 739 740 742 744 745 747 748 750 751 753 754 755 757 758 758 758 758 758 758 758 758 758 757 756 755 755 755 755 755 755 755 755 754 754 753 752 751 750